When you browse on this site, cookies collect data to enhance your experience and personalize the content and advertising you see.
Visit our Privacy Policy to learn more. By continuing to use the site, you agree to this use of cookies and data.
  • In Österreich
  • Länderverzeichnis
  • Für 7 Tage
  • Wassertemperatur
  • Wetterkarte
  • News
  • Widgets
  • user-avatar
    Anmelden

    Stündliche Wetter Baleyka

    Heute, 15 November, Freitag

    Zeit Temperatur Niederschläge Wind Luftdruck Luftfeuchtigkeit
    00:00 +2°C° 0 mm 1 m/S 767 mmHg 82%
    01:00 +2°C° 0 mm 1 m/S 767 mmHg 82%
    02:00 +1°C° 0 mm 1 m/S 767 mmHg 81%
    03:00 +1°C° 0 mm 1 m/S 768 mmHg 80%
    04:00 -2°C° 0 mm 2 m/S 768 mmHg 80%
    05:00 -2°C° 0 mm 2 m/S 768 mmHg 79%
    06:00 -3°C° 0 mm 2 m/S 768 mmHg 79%
    07:00 -3°C° 0 mm 2 m/S 768 mmHg 78%
    08:00 -2°C° 0 mm 2 m/S 769 mmHg 74%
    09:00 -2°C° 0 mm 2 m/S 769 mmHg 71%
    10:00 -1°C° 0 mm 3 m/S 769 mmHg 67%
    11:00 0°C° 0 mm 3 m/S 769 mmHg 65%
    12:00 0°C° 0 mm 3 m/S 769 mmHg 63%
    13:00 +1°C° 0 mm 3 m/S 769 mmHg 61%
    14:00 +1°C° 0 mm 3 m/S 769 mmHg 63%
    15:00 +2°C° 0 mm 2 m/S 769 mmHg 66%
    16:00 +1°C° 0 mm 2 m/S 769 mmHg 68%
    17:00 +1°C° 0 mm 2 m/S 769 mmHg 70%
    18:00 -1°C° 0 mm 2 m/S 769 mmHg 72%
    19:00 -2°C° 0 mm 2 m/S 769 mmHg 74%
    20:00 -2°C° 0 mm 2 m/S 769 mmHg 74%
    21:00 -2°C° 0 mm 2 m/S 769 mmHg 74%
    22:00 -2°C° 0 mm 2 m/S 770 mmHg 74%
    23:00 -2°C° 0 mm 2 m/S 769 mmHg 74%

    Morgen, 16 November, Samstag

    Zeit Temperatur Niederschläge Wind Luftdruck Luftfeuchtigkeit
    00:00 -2°C° 0 mm 2 m/S 769 mmHg 74%
    01:00 -2°C° 0 mm 2 m/S 769 mmHg 74%
    02:00 -2°C° 0 mm 2 m/S 769 mmHg 74%
    03:00 -2°C° 0 mm 2 m/S 769 mmHg 74%
    04:00 -2°C° 0 mm 2 m/S 770 mmHg 74%
    05:00 -2°C° 0 mm 2 m/S 769 mmHg 74%
    06:00 -2°C° 0 mm 2 m/S 769 mmHg 74%
    07:00 -2°C° 0 mm 2 m/S 769 mmHg 74%
    08:00 -2°C° 0 mm 2 m/S 769 mmHg 71%
    09:00 -1°C° 0 mm 2 m/S 770 mmHg 68%
    10:00 +1°C° 0 mm 2 m/S 770 mmHg 64%
    11:00 +2°C° 0 mm 2 m/S 770 mmHg 62%
    12:00 +3°C° 0 mm 2 m/S 769 mmHg 59%
    13:00 +3°C° 0 mm 3 m/S 769 mmHg 57%
    14:00 +3°C° 0 mm 2 m/S 769 mmHg 60%
    15:00 +2°C° 0 mm 2 m/S 769 mmHg 63%
    16:00 +2°C° 0 mm 2 m/S 769 mmHg 66%
    17:00 +1°C° 0 mm 2 m/S 769 mmHg 66%
    18:00 -1°C° 0 mm 2 m/S 768 mmHg 66%
    19:00 -2°C° 0 mm 2 m/S 768 mmHg 67%
    20:00 -2°C° 0 mm 2 m/S 768 mmHg 65%
    21:00 -2°C° 0 mm 2 m/S 768 mmHg 63%
    22:00 -2°C° 0 mm 2 m/S 768 mmHg 62%
    23:00 -2°C° 0 mm 2 m/S 768 mmHg 61%

    übermorgen, 17 November, Sonntag

    Zeit Temperatur Niederschläge Wind Luftdruck Luftfeuchtigkeit
    00:00 -2°C° 0 mm 2 m/S 768 mmHg 61%
    01:00 -2°C° 0 mm 2 m/S 768 mmHg 60%
    02:00 -2°C° 0 mm 3 m/S 767 mmHg 61%
    03:00 -2°C° 0 mm 3 m/S 767 mmHg 62%
    04:00 -4°C° 0 mm 3 m/S 767 mmHg 63%
    05:00 -4°C° 0 mm 3 m/S 767 mmHg 64%
    06:00 -4°C° 0 mm 3 m/S 766 mmHg 65%
    07:00 -4°C° 0 mm 3 m/S 766 mmHg 66%
    08:00 -3°C° 0 mm 4 m/S 766 mmHg 63%
    09:00 -2°C° 0 mm 4 m/S 766 mmHg 60%
    10:00 -1°C° 0 mm 5 m/S 766 mmHg 57%
    11:00 0°C° 0 mm 5 m/S 765 mmHg 56%
    12:00 +1°C° 0 mm 5 m/S 765 mmHg 56%
    13:00 +2°C° 0 mm 5 m/S 764 mmHg 55%
    14:00 +1°C° 0 mm 5 m/S 764 mmHg 60%
    15:00 0°C° 0 mm 5 m/S 764 mmHg 64%
    16:00 0°C° 0 mm 4 m/S 764 mmHg 69%
    17:00 -1°C° 0 mm 4 m/S 763 mmHg 73%
    18:00 -2°C° 0 mm 4 m/S 763 mmHg 77%
    19:00 -1°C° 0 mm 3 m/S 763 mmHg 82%
    20:00 -1°C° 0 mm 3 m/S 763 mmHg 84%
    21:00 -2°C° 0 mm 3 m/S 763 mmHg 86%
    22:00 -2°C° 0 mm 3 m/S 763 mmHg 88%
    23:00 -2°C° 0 mm 3 m/S 763 mmHg 90%

    18 November, Montag

    Zeit Temperatur Niederschläge Wind Luftdruck Luftfeuchtigkeit
    00:00 -2°C° 0 mm 3 m/S 762 mmHg 91%
    01:00 -2°C° 0 mm 3 m/S 762 mmHg 92%
    02:00 -2°C° 0 mm 3 m/S 762 mmHg 93%
    03:00 -2°C° 0 mm 3 m/S 761 mmHg 93%
    04:00 -2°C° 0 mm 3 m/S 761 mmHg 93%
    05:00 -2°C° 0 mm 3 m/S 760 mmHg 93%
    06:00 -2°C° 0 mm 3 m/S 760 mmHg 93%
    07:00 -3°C° 0 mm 4 m/S 760 mmHg 93%
    08:00 -2°C° 0 mm 4 m/S 759 mmHg 90%
    09:00 -2°C° 0 mm 4 m/S 759 mmHg 86%
    10:00 -1°C° 0 mm 5 m/S 759 mmHg 83%
    11:00 0°C° 0 mm 5 m/S 758 mmHg 77%
    12:00 -1°C° 0 mm 6 m/S 757 mmHg 72%
    13:00 +1°C° 0 mm 6 m/S 757 mmHg 66%
    14:00 +1°C° 0 mm 6 m/S 756 mmHg 67%
    15:00 0°C° 0 mm 5 m/S 756 mmHg 67%
    16:00 0°C° 0 mm 5 m/S 756 mmHg 68%
    17:00 0°C° 0 mm 5 m/S 756 mmHg 73%
    18:00 -1°C° 0 mm 5 m/S 755 mmHg 79%
    19:00 -1°C° 0 mm 5 m/S 755 mmHg 84%
    20:00 -1°C° 0 mm 5 m/S 755 mmHg 87%
    21:00 -1°C° 0 mm 5 m/S 755 mmHg 90%
    22:00 0°C° 0 mm 4 m/S 754 mmHg 93%
    23:00 0°C° 0 mm 4 m/S 754 mmHg 94%

    19 November, Dienstag

    Zeit Temperatur Niederschläge Wind Luftdruck Luftfeuchtigkeit
    00:00 0°C° 0 mm 4 m/S 754 mmHg 95%
    01:00 0°C° 0 mm 4 m/S 754 mmHg 96%
    02:00 0°C° 0 mm 4 m/S 753 mmHg 96%
    03:00 0°C° 0 mm 5 m/S 753 mmHg 97%
    04:00 0°C° 0 mm 5 m/S 753 mmHg 97%
    05:00 0°C° 0 mm 5 m/S 753 mmHg 97%
    06:00 0°C° 0 mm 5 m/S 753 mmHg 97%
    07:00 0°C° 0 mm 5 m/S 753 mmHg 97%
    08:00 -3°C° 0.1 mm 6 m/S 753 mmHg 91%
    09:00 -4°C° 0.1 mm 6 m/S 754 mmHg 84%
    10:00 -6°C° 0.1 mm 7 m/S 754 mmHg 78%
    11:00 -7°C° 0 mm 7 m/S 754 mmHg 72%
    12:00 -7°C° 0 mm 7 m/S 755 mmHg 67%
    13:00 -8°C° 0 mm 8 m/S 756 mmHg 61%
    14:00 -10°C° 0 mm 8 m/S 756 mmHg 58%
    15:00 -12°C° 0 mm 8 m/S 757 mmHg 54%
    16:00 -14°C° 0 mm 9 m/S 757 mmHg 51%
    17:00 -15°C° 0 mm 9 m/S 758 mmHg 51%
    18:00 -16°C° 0 mm 9 m/S 758 mmHg 51%
    19:00 -16°C° 0 mm 9 m/S 759 mmHg 51%
    20:00 -17°C° 0 mm 9 m/S 760 mmHg 52%
    21:00 -17°C° 0 mm 8 m/S 760 mmHg 52%
    22:00 -18°C° 0 mm 8 m/S 761 mmHg 53%
    23:00 -18°C° 0 mm 8 m/S 761 mmHg 53%

    20 November, Mittwoch

    Zeit Temperatur Niederschläge Wind Luftdruck Luftfeuchtigkeit
    00:00 -19°C° 0 mm 8 m/S 761 mmHg 54%
    01:00 -19°C° 0 mm 7 m/S 762 mmHg 55%
    02:00 -19°C° 0 mm 7 m/S 762 mmHg 56%
    03:00 -19°C° 0 mm 7 m/S 762 mmHg 58%
    04:00 -20°C° 0 mm 7 m/S 763 mmHg 59%
    05:00 -20°C° 0 mm 7 m/S 763 mmHg 60%
    06:00 -20°C° 0 mm 7 m/S 763 mmHg 61%
    07:00 -20°C° 0 mm 7 m/S 763 mmHg 63%
    08:00 -19°C° 0 mm 7 m/S 763 mmHg 61%
    09:00 -19°C° 0 mm 7 m/S 763 mmHg 59%
    10:00 -19°C° 0 mm 7 m/S 763 mmHg 57%
    11:00 -18°C° 0 mm 7 m/S 763 mmHg 51%
    12:00 -17°C° 0 mm 7 m/S 763 mmHg 45%
    13:00 -15°C° 0 mm 7 m/S 763 mmHg 40%
    14:00 -15°C° 0 mm 7 m/S 762 mmHg 40%
    15:00 -15°C° 0 mm 7 m/S 762 mmHg 41%
    16:00 -15°C° 0 mm 7 m/S 762 mmHg 42%
    17:00 -15°C° 0 mm 7 m/S 762 mmHg 47%
    18:00 -15°C° 0 mm 7 m/S 762 mmHg 52%
    19:00 -17°C° 0 mm 7 m/S 762 mmHg 57%
    20:00 -17°C° 0 mm 8 m/S 762 mmHg 59%
    21:00 -18°C° 0 mm 8 m/S 763 mmHg 61%
    22:00 -18°C° 0 mm 8 m/S 763 mmHg 62%
    23:00 -18°C° 0 mm 7 m/S 764 mmHg 62%
    Mehr zeigen